Voltar ao catálogo

STARLINK-30953

AtivoComunicaçõesVLEO
NORAD 58491·PAYLOAD·🇺🇸 United States

Lançado Dec 3, 2023 de Cape Canaveral Space Force Station

Loading…

Próximas Passagens (próximas 24 horas)

TLE

AtualizadoSource: CelesTrak SupGP

Época: Sep 15, 2026, 02:47 UTC

1 58491C 23186U   26258.11645833  .00000154  00000+0  55839-5 0  2583
2 58491  42.9999 277.7215 0001451 262.5880 345.5209 15.27581752    16

Acompanhe STARLINK-30953 em tempo real com AllMySat

Download on the App Store